Year,Month,Day,Hour,Minute,Value (Times are PST for temperature in C)
2013,09,11,00,00,16.30
2013,09,11,00,01,16.30
2013,09,11,00,02,16.30
2013,09,11,00,03,16.30
2013,09,11,00,04,16.30
2013,09,11,00,05,16.30
2013,09,11,00,06,16.30
2013,09,11,00,07,16.20
2013,09,11,00,08,16.20
2013,09,11,00,09,16.20
2013,09,11,00,10,16.20
2013,09,11,00,11,16.20
2013,09,11,00,12,16.20
2013,09,11,00,13,16.20
2013,09,11,00,14,16.20
2013,09,11,00,15,16.20
2013,09,11,00,16,16.20
2013,09,11,00,17,16.20
2013,09,11,00,18,16.10
2013,09,11,00,19,16.10
2013,09,11,00,20,16.10
2013,09,11,00,21,16.10
2013,09,11,00,22,16.10
2013,09,11,00,23,16.10
2013,09,11,00,24,16.10
2013,09,11,00,25,16.10
2013,09,11,00,26,16.10
2013,09,11,00,27,16.00
2013,09,11,00,28,16.00
2013,09,11,00,29,16.00
2013,09,11,00,30,16.00
2013,09,11,00,31,16.00
2013,09,11,00,32,16.00
2013,09,11,00,33,15.90
2013,09,11,00,34,15.90
2013,09,11,00,35,15.90
2013,09,11,00,36,15.90
2013,09,11,00,37,15.90
2013,09,11,00,38,15.90
2013,09,11,00,39,15.90
2013,09,11,00,40,15.90
2013,09,11,00,41,15.80
2013,09,11,00,42,15.80
2013,09,11,00,43,15.80
2013,09,11,00,44,15.80
2013,09,11,00,45,15.80
2013,09,11,00,46,15.80
2013,09,11,00,47,15.80
2013,09,11,00,48,15.80
2013,09,11,00,49,15.80
2013,09,11,00,50,15.80
2013,09,11,00,51,15.80
2013,09,11,00,52,15.70
2013,09,11,00,53,15.70
2013,09,11,00,54,15.70
2013,09,11,00,55,15.70
2013,09,11,00,56,15.70
2013,09,11,00,57,15.70
2013,09,11,00,58,15.70
2013,09,11,00,59,15.70
2013,09,11,01,00,15.60
2013,09,11,01,01,15.60
2013,09,11,01,02,15.60
2013,09,11,01,03,15.60
2013,09,11,01,04,15.60
2013,09,11,01,05,15.60
2013,09,11,01,06,15.60
2013,09,11,01,07,15.50
2013,09,11,01,08,15.50
2013,09,11,01,09,15.50
2013,09,11,01,10,15.50
2013,09,11,01,11,15.50
2013,09,11,01,12,15.50
2013,09,11,01,13,15.40
2013,09,11,01,14,15.40
2013,09,11,01,15,15.40
2013,09,11,01,16,15.40
2013,09,11,01,17,15.40
2013,09,11,01,18,15.40
2013,09,11,01,19,15.40
2013,09,11,01,20,15.40
2013,09,11,01,21,15.40
2013,09,11,01,22,15.40
2013,09,11,01,23,15.40
2013,09,11,01,24,15.40
2013,09,11,01,25,15.40
2013,09,11,01,26,15.40
2013,09,11,01,27,15.40
2013,09,11,01,28,15.40
2013,09,11,01,29,15.40
2013,09,11,01,30,15.30
2013,09,11,01,31,15.30
2013,09,11,01,32,15.30
2013,09,11,01,33,15.30
2013,09,11,01,34,15.30
2013,09,11,01,35,15.30
2013,09,11,01,36,15.30
2013,09,11,01,37,15.30
2013,09,11,01,38,15.30
2013,09,11,01,39,15.30
2013,09,11,01,40,15.30
2013,09,11,01,41,15.30
2013,09,11,01,42,15.30
2013,09,11,01,43,15.30
2013,09,11,01,44,15.30
2013,09,11,01,45,15.30
2013,09,11,01,46,15.30
2013,09,11,01,47,15.30
2013,09,11,01,48,15.30
2013,09,11,01,49,15.30
2013,09,11,01,50,15.30
2013,09,11,01,51,15.30
2013,09,11,01,52,15.30
2013,09,11,01,53,15.30
2013,09,11,01,54,15.30
2013,09,11,01,55,15.30
2013,09,11,01,56,15.30
2013,09,11,01,57,15.30
2013,09,11,01,58,15.30
2013,09,11,01,59,15.30
2013,09,11,02,00,15.30
2013,09,11,02,01,15.30
2013,09,11,02,02,15.30
2013,09,11,02,03,15.30
2013,09,11,02,04,15.30
2013,09,11,02,05,15.30
2013,09,11,02,06,15.30
2013,09,11,02,07,15.30
2013,09,11,02,08,15.30
2013,09,11,02,09,15.30
2013,09,11,02,10,15.30
2013,09,11,02,11,15.30
2013,09,11,02,12,15.30
2013,09,11,02,13,15.40
2013,09,11,02,14,15.30
2013,09,11,02,15,15.40
2013,09,11,02,16,15.40
2013,09,11,02,17,15.40
2013,09,11,02,18,15.40
2013,09,11,02,19,15.40
2013,09,11,02,20,15.40
2013,09,11,02,21,15.40
2013,09,11,02,22,15.40
2013,09,11,02,23,15.40
2013,09,11,02,24,15.40
2013,09,11,02,25,15.40
2013,09,11,02,26,15.40
2013,09,11,02,27,15.40
2013,09,11,02,28,15.40
2013,09,11,02,29,15.40
2013,09,11,02,30,15.40
2013,09,11,02,31,15.40
2013,09,11,02,32,15.40
2013,09,11,02,33,15.40
2013,09,11,02,34,15.50
2013,09,11,02,35,15.50
2013,09,11,02,36,15.50
2013,09,11,02,37,15.50
2013,09,11,02,38,15.50
2013,09,11,02,39,15.50
2013,09,11,02,40,15.50
2013,09,11,02,41,15.50
2013,09,11,02,42,15.50
2013,09,11,02,43,15.50
2013,09,11,02,44,15.40
2013,09,11,02,45,15.40
2013,09,11,02,46,15.40
2013,09,11,02,47,15.40
2013,09,11,02,48,15.40
2013,09,11,02,49,15.40
2013,09,11,02,50,15.40
2013,09,11,02,51,15.40
2013,09,11,02,52,15.40
2013,09,11,02,53,15.40
2013,09,11,02,54,15.40
2013,09,11,02,55,15.40
2013,09,11,02,56,15.40
2013,09,11,02,57,15.40
2013,09,11,02,58,15.40
2013,09,11,02,59,15.40
2013,09,11,03,00,15.40
2013,09,11,03,01,15.30
2013,09,11,03,02,15.40
2013,09,11,03,03,15.40
2013,09,11,03,04,15.40
2013,09,11,03,05,15.40
2013,09,11,03,06,15.40
2013,09,11,03,07,15.40
2013,09,11,03,08,15.40
2013,09,11,03,09,15.40
2013,09,11,03,10,15.30
2013,09,11,03,11,15.30
2013,09,11,03,12,15.30
2013,09,11,03,13,15.30
2013,09,11,03,14,15.30
2013,09,11,03,15,15.30
2013,09,11,03,16,15.30
2013,09,11,03,17,15.40
2013,09,11,03,18,15.40
2013,09,11,03,19,15.40
2013,09,11,03,20,15.40
2013,09,11,03,21,15.40
2013,09,11,03,22,15.40
2013,09,11,03,23,15.40
2013,09,11,03,24,15.40
2013,09,11,03,25,15.50
2013,09,11,03,26,15.50
2013,09,11,03,27,15.50
2013,09,11,03,28,15.40
2013,09,11,03,29,15.40
2013,09,11,03,30,15.50
2013,09,11,03,31,15.40
2013,09,11,03,32,15.50
2013,09,11,03,33,15.50
2013,09,11,03,34,15.50
2013,09,11,03,35,15.50
2013,09,11,03,36,15.60
2013,09,11,03,37,15.60
2013,09,11,03,38,15.60
2013,09,11,03,39,15.60
2013,09,11,03,40,15.70
2013,09,11,03,41,15.80
2013,09,11,03,42,15.80
2013,09,11,03,43,15.90
2013,09,11,03,44,16.00
2013,09,11,03,45,16.00
2013,09,11,03,46,16.10
2013,09,11,03,47,16.10
2013,09,11,03,48,16.20
2013,09,11,03,49,16.20
2013,09,11,03,50,16.30
2013,09,11,03,51,16.30
2013,09,11,03,52,16.40
2013,09,11,03,53,16.40
2013,09,11,03,54,16.40
2013,09,11,03,55,16.50
2013,09,11,03,56,16.50
2013,09,11,03,57,16.60
2013,09,11,03,58,16.60
2013,09,11,03,59,16.60
2013,09,11,04,00,16.60
2013,09,11,04,01,16.60
2013,09,11,04,02,16.60
2013,09,11,04,03,16.60
2013,09,11,04,04,16.60
2013,09,11,04,05,16.60
2013,09,11,04,06,16.60
2013,09,11,04,07,16.60
2013,09,11,04,08,16.50
2013,09,11,04,09,16.50
2013,09,11,04,10,16.50
2013,09,11,04,11,16.50
2013,09,11,04,12,16.50
2013,09,11,04,13,16.50
2013,09,11,04,14,16.50
2013,09,11,04,15,16.50
2013,09,11,04,16,16.50
2013,09,11,04,17,16.50
2013,09,11,04,18,16.60
2013,09,11,04,19,16.60
2013,09,11,04,20,16.60
2013,09,11,04,21,16.60
2013,09,11,04,22,16.60
2013,09,11,04,23,16.60
2013,09,11,04,24,16.60
2013,09,11,04,25,16.60
2013,09,11,04,26,16.50
2013,09,11,04,27,16.50
2013,09,11,04,28,16.50
2013,09,11,04,29,16.50
2013,09,11,04,30,16.40
2013,09,11,04,31,16.40
2013,09,11,04,32,16.40
2013,09,11,04,33,16.40
2013,09,11,04,34,16.30
2013,09,11,04,35,16.30
2013,09,11,04,36,16.30
2013,09,11,04,37,16.30
2013,09,11,04,38,16.30
2013,09,11,04,39,16.30
2013,09,11,04,40,16.20
2013,09,11,04,41,16.20
2013,09,11,04,42,16.20
2013,09,11,04,43,16.20
2013,09,11,04,44,16.10
2013,09,11,04,45,16.10
2013,09,11,04,46,16.10
2013,09,11,04,47,16.10
2013,09,11,04,48,16.00
2013,09,11,04,49,16.00
2013,09,11,04,50,16.00
2013,09,11,04,51,15.90
2013,09,11,04,52,15.90
2013,09,11,04,53,15.90
2013,09,11,04,54,15.90
2013,09,11,04,55,15.90
2013,09,11,04,56,15.90
2013,09,11,04,57,15.90
2013,09,11,04,58,15.90
2013,09,11,04,59,15.80
2013,09,11,05,00,15.80
2013,09,11,05,01,15.80
2013,09,11,05,02,15.80
2013,09,11,05,03,15.80
2013,09,11,05,04,15.70
2013,09,11,05,05,15.70
2013,09,11,05,06,15.70
2013,09,11,05,07,15.70
2013,09,11,05,08,15.70
2013,09,11,05,09,15.70
2013,09,11,05,10,15.60
2013,09,11,05,11,15.60
2013,09,11,05,12,15.60
2013,09,11,05,13,15.60
2013,09,11,05,14,15.60
2013,09,11,05,15,15.60
2013,09,11,05,16,15.60
2013,09,11,05,17,15.60
2013,09,11,05,18,15.60
2013,09,11,05,19,15.60
2013,09,11,05,20,15.60
2013,09,11,05,21,15.60
2013,09,11,05,22,15.60
2013,09,11,05,23,15.60
2013,09,11,05,24,15.70
2013,09,11,05,25,15.70
2013,09,11,05,26,15.70
2013,09,11,05,27,15.70
2013,09,11,05,28,15.70
2013,09,11,05,29,15.70
2013,09,11,05,30,15.70
2013,09,11,05,31,15.80
2013,09,11,05,32,15.80
2013,09,11,05,33,15.80
2013,09,11,05,34,15.80
2013,09,11,05,35,15.80
2013,09,11,05,36,15.80
2013,09,11,05,37,15.80
2013,09,11,05,38,15.80
2013,09,11,05,39,15.80
2013,09,11,05,40,15.80
2013,09,11,05,41,15.90
2013,09,11,05,42,15.90
2013,09,11,05,43,15.90
2013,09,11,05,44,15.90
2013,09,11,05,45,15.90
2013,09,11,05,46,15.90
2013,09,11,05,47,15.90
2013,09,11,05,48,15.90
2013,09,11,05,49,15.90
2013,09,11,05,50,15.90
2013,09,11,05,51,16.00
2013,09,11,05,52,16.00
2013,09,11,05,53,16.00
2013,09,11,05,54,16.00
2013,09,11,05,55,16.00
2013,09,11,05,56,16.00
2013,09,11,05,57,15.90
2013,09,11,05,58,15.90
2013,09,11,05,59,15.90
2013,09,11,06,00,15.90
2013,09,11,06,01,15.90
2013,09,11,06,02,15.90
2013,09,11,06,03,15.90
2013,09,11,06,04,15.90
2013,09,11,06,05,16.00
2013,09,11,06,06,16.00
2013,09,11,06,07,16.10
2013,09,11,06,08,16.10
2013,09,11,06,09,16.10
2013,09,11,06,10,16.10
2013,09,11,06,11,16.20
2013,09,11,06,12,16.20
2013,09,11,06,13,16.20
2013,09,11,06,14,16.30
2013,09,11,06,15,16.30
2013,09,11,06,16,16.30
2013,09,11,06,17,16.30
2013,09,11,06,18,16.30
2013,09,11,06,19,16.30
2013,09,11,06,20,16.30
2013,09,11,06,21,16.30
2013,09,11,06,22,16.30
2013,09,11,06,23,16.30
2013,09,11,06,24,16.30
2013,09,11,06,25,16.20
2013,09,11,06,26,16.20
2013,09,11,06,27,16.20
2013,09,11,06,28,16.10
2013,09,11,06,29,16.10
2013,09,11,06,30,16.10
2013,09,11,06,31,16.10
2013,09,11,06,32,16.00
2013,09,11,06,33,16.00
2013,09,11,06,34,16.00
2013,09,11,06,35,16.10
2013,09,11,06,36,16.10
2013,09,11,06,37,16.10
2013,09,11,06,38,16.10
2013,09,11,06,39,16.10
2013,09,11,06,40,16.20
2013,09,11,06,41,16.20
2013,09,11,06,42,16.20
2013,09,11,06,43,16.30
2013,09,11,06,44,16.30
2013,09,11,06,45,16.30
2013,09,11,06,46,16.30
2013,09,11,06,47,16.40
2013,09,11,06,48,16.40
2013,09,11,06,49,16.40
2013,09,11,06,50,16.40
2013,09,11,06,51,16.40
2013,09,11,06,52,16.40
2013,09,11,06,53,16.50
2013,09,11,06,54,16.50
2013,09,11,06,55,16.50
2013,09,11,06,56,16.50
2013,09,11,06,57,16.50
2013,09,11,06,58,16.50
2013,09,11,06,59,16.50
2013,09,11,07,00,16.50
2013,09,11,07,01,16.50
2013,09,11,07,02,16.50
2013,09,11,07,03,16.50
2013,09,11,07,04,16.50
2013,09,11,07,05,16.50
2013,09,11,07,06,16.50
2013,09,11,07,07,16.40
2013,09,11,07,08,16.40
2013,09,11,07,09,16.40
2013,09,11,07,10,16.40
2013,09,11,07,11,16.40
2013,09,11,07,12,16.40
2013,09,11,07,13,16.30
2013,09,11,07,14,16.30
2013,09,11,07,15,16.30
2013,09,11,07,16,16.30
2013,09,11,07,17,16.30
2013,09,11,07,18,16.30
2013,09,11,07,19,16.30
2013,09,11,07,20,16.20
2013,09,11,07,21,16.20
2013,09,11,07,22,16.20
2013,09,11,07,23,16.20
2013,09,11,07,24,16.20
2013,09,11,07,25,16.20
2013,09,11,07,26,16.10
2013,09,11,07,27,16.10
2013,09,11,07,28,16.10
2013,09,11,07,29,16.10
2013,09,11,07,30,16.20
2013,09,11,07,31,16.20
2013,09,11,07,32,16.20
2013,09,11,07,33,16.20
2013,09,11,07,34,16.20
2013,09,11,07,35,16.20
2013,09,11,07,36,16.20
2013,09,11,07,37,16.30
2013,09,11,07,38,16.30
2013,09,11,07,39,16.30
2013,09,11,07,40,16.30
2013,09,11,07,41,16.40
2013,09,11,07,42,16.40
2013,09,11,07,43,16.50
2013,09,11,07,44,16.50
2013,09,11,07,45,16.60
2013,09,11,07,46,16.60
2013,09,11,07,47,16.60
2013,09,11,07,48,16.70
2013,09,11,07,49,16.70
2013,09,11,07,50,16.70
2013,09,11,07,51,16.80
2013,09,11,07,52,16.80
2013,09,11,07,53,16.90
2013,09,11,07,54,16.90
2013,09,11,07,55,16.90
2013,09,11,07,56,17.00
2013,09,11,07,57,17.00
2013,09,11,07,58,17.00
2013,09,11,07,59,17.10
2013,09,11,08,00,17.10
2013,09,11,08,01,17.20
2013,09,11,08,02,17.20
2013,09,11,08,03,17.20
2013,09,11,08,04,17.30
2013,09,11,08,05,17.30
2013,09,11,08,06,17.40
2013,09,11,08,07,17.40
2013,09,11,08,08,17.40
2013,09,11,08,09,17.50
2013,09,11,08,10,17.50
2013,09,11,08,11,17.60
2013,09,11,08,12,17.60
2013,09,11,08,13,17.60
2013,09,11,08,14,17.70
2013,09,11,08,15,17.70
2013,09,11,08,16,17.70
2013,09,11,08,17,17.80
2013,09,11,08,18,17.80
2013,09,11,08,19,17.80
2013,09,11,08,20,17.90
2013,09,11,08,21,18.00
2013,09,11,08,22,18.00
2013,09,11,08,23,18.10
2013,09,11,08,24,18.10
2013,09,11,08,25,18.20
2013,09,11,08,26,18.20
2013,09,11,08,27,18.30
2013,09,11,08,28,18.30
2013,09,11,08,29,18.40
2013,09,11,08,30,18.40
2013,09,11,08,31,18.50
2013,09,11,08,32,18.50
2013,09,11,08,33,18.60
2013,09,11,08,34,18.60
2013,09,11,08,35,18.70
2013,09,11,08,36,18.70
2013,09,11,08,37,18.80
2013,09,11,08,38,18.80
2013,09,11,08,39,18.90
2013,09,11,08,40,19.00
2013,09,11,08,41,19.00
2013,09,11,08,42,19.10
2013,09,11,08,43,19.20
2013,09,11,08,44,19.20
2013,09,11,08,45,19.30
2013,09,11,08,46,19.40
2013,09,11,08,47,19.50
2013,09,11,08,48,19.60
2013,09,11,08,49,19.60
2013,09,11,08,50,19.70
2013,09,11,08,51,19.80
2013,09,11,08,52,19.90
2013,09,11,08,53,20.00
2013,09,11,08,54,20.10
2013,09,11,08,55,20.20
2013,09,11,08,56,20.30
2013,09,11,08,57,20.40
2013,09,11,08,58,20.50
2013,09,11,08,59,20.60
2013,09,11,09,00,20.70
2013,09,11,09,01,20.80
2013,09,11,09,02,20.80
2013,09,11,09,03,20.90
2013,09,11,09,04,20.90
2013,09,11,09,05,21.00
2013,09,11,09,06,21.10
2013,09,11,09,07,21.10
2013,09,11,09,08,21.20
2013,09,11,09,09,21.30
2013,09,11,09,10,21.30
2013,09,11,09,11,21.40
2013,09,11,09,12,21.50
2013,09,11,09,13,21.60
2013,09,11,09,14,21.70
2013,09,11,09,15,21.70
2013,09,11,09,16,21.80
2013,09,11,09,17,21.80
2013,09,11,09,18,21.80
2013,09,11,09,19,21.80
2013,09,11,09,20,21.90
2013,09,11,09,21,22.00
2013,09,11,09,22,22.00
2013,09,11,09,23,22.10
2013,09,11,09,24,22.20
2013,09,11,09,25,22.30
2013,09,11,09,26,22.40
2013,09,11,09,27,22.50
2013,09,11,09,28,22.60
2013,09,11,09,29,22.60
2013,09,11,09,30,22.70
2013,09,11,09,31,22.70
2013,09,11,09,32,22.80
2013,09,11,09,33,22.90
2013,09,11,09,34,23.00
2013,09,11,09,35,23.10
2013,09,11,09,36,23.20
2013,09,11,09,37,23.30
2013,09,11,09,38,23.30
2013,09,11,09,39,23.40
2013,09,11,09,40,23.50
2013,09,11,09,41,23.60
2013,09,11,09,42,23.60
2013,09,11,09,43,23.70
2013,09,11,09,44,23.80
2013,09,11,09,45,23.90
2013,09,11,09,46,23.90
2013,09,11,09,47,24.00
2013,09,11,09,48,24.10
2013,09,11,09,49,24.10
2013,09,11,09,50,24.20
2013,09,11,09,51,24.30
2013,09,11,09,52,24.30
2013,09,11,09,53,24.40
2013,09,11,09,54,24.50
2013,09,11,09,55,24.60
2013,09,11,09,56,24.60
2013,09,11,09,57,24.70
2013,09,11,09,58,24.80
2013,09,11,09,59,24.80
2013,09,11,10,00,24.90
2013,09,11,10,01,24.90
2013,09,11,10,02,24.90
2013,09,11,10,03,24.90
2013,09,11,10,04,24.90
2013,09,11,10,05,24.90
2013,09,11,10,06,25.00
2013,09,11,10,07,25.00
2013,09,11,10,08,25.00
2013,09,11,10,09,25.00
2013,09,11,10,10,25.00
2013,09,11,10,11,24.90
2013,09,11,10,12,24.90
2013,09,11,10,13,25.00
2013,09,11,10,14,25.00
2013,09,11,10,15,25.00
2013,09,11,10,16,25.00
2013,09,11,10,17,25.10
2013,09,11,10,18,25.10
2013,09,11,10,19,25.20
2013,09,11,10,20,25.20
2013,09,11,10,21,25.30
2013,09,11,10,22,25.30
2013,09,11,10,23,25.30
2013,09,11,10,24,25.40
2013,09,11,10,25,25.40
2013,09,11,10,26,25.40
2013,09,11,10,27,25.40
2013,09,11,10,28,25.50
2013,09,11,10,29,25.50
2013,09,11,10,30,25.50
2013,09,11,10,31,25.60
2013,09,11,10,32,25.60
2013,09,11,10,33,25.60
2013,09,11,10,34,25.70
2013,09,11,10,35,25.70
2013,09,11,10,36,25.80
2013,09,11,10,37,25.80
2013,09,11,10,38,25.90
2013,09,11,10,39,25.90
2013,09,11,10,40,26.00
2013,09,11,10,41,26.00
2013,09,11,10,42,26.10
2013,09,11,10,43,26.10
2013,09,11,10,44,26.10
2013,09,11,10,45,26.10
2013,09,11,10,46,26.10
2013,09,11,10,47,26.10
2013,09,11,10,48,26.10
2013,09,11,10,49,26.10
2013,09,11,10,50,26.20
2013,09,11,10,51,26.20
2013,09,11,10,52,26.20
2013,09,11,10,53,26.30
2013,09,11,10,54,26.30
2013,09,11,10,55,26.40
2013,09,11,10,56,26.40
2013,09,11,10,57,26.40
2013,09,11,10,58,26.50
2013,09,11,10,59,26.50
2013,09,11,11,00,26.50
2013,09,11,11,01,26.60
2013,09,11,11,02,26.60
2013,09,11,11,03,26.60
2013,09,11,11,04,26.60
2013,09,11,11,05,26.60
2013,09,11,11,06,26.70
2013,09,11,11,07,26.70
2013,09,11,11,08,26.70
2013,09,11,11,09,26.80
2013,09,11,11,10,26.80
2013,09,11,11,11,26.80
2013,09,11,11,12,26.80
2013,09,11,11,13,26.80
2013,09,11,11,14,26.80
2013,09,11,11,15,26.80
2013,09,11,11,16,26.80
2013,09,11,11,17,26.80
2013,09,11,11,18,26.90
2013,09,11,11,19,26.90
2013,09,11,11,20,26.90
2013,09,11,11,21,27.00
2013,09,11,11,22,27.00
2013,09,11,11,23,27.10
2013,09,11,11,24,27.10
2013,09,11,11,25,27.20
2013,09,11,11,26,27.20
2013,09,11,11,27,27.30
2013,09,11,11,28,27.40
2013,09,11,11,29,27.40
2013,09,11,11,30,27.50
2013,09,11,11,31,27.60
2013,09,11,11,32,27.70
2013,09,11,11,33,27.80
2013,09,11,11,34,27.80
2013,09,11,11,35,27.80
2013,09,11,11,36,27.80
2013,09,11,11,37,27.80
2013,09,11,11,38,27.80
2013,09,11,11,39,27.80
2013,09,11,11,40,27.90
2013,09,11,11,41,27.90
2013,09,11,11,42,27.90
2013,09,11,11,43,28.00
2013,09,11,11,44,28.00
2013,09,11,11,45,28.10
2013,09,11,11,46,28.10
2013,09,11,11,47,28.20
2013,09,11,11,48,28.30
2013,09,11,11,49,28.30
2013,09,11,11,50,28.30
2013,09,11,11,51,28.30
2013,09,11,11,52,28.30
2013,09,11,11,53,28.40
2013,09,11,11,54,28.40
2013,09,11,11,55,28.40
2013,09,11,11,56,28.40
2013,09,11,11,57,28.40
2013,09,11,11,58,28.40
2013,09,11,11,59,28.30
2013,09,11,12,00,28.30
2013,09,11,12,01,28.30
2013,09,11,12,02,28.30
2013,09,11,12,03,28.40
2013,09,11,12,04,28.40
2013,09,11,12,05,28.50
2013,09,11,12,06,28.50
2013,09,11,12,07,28.60
2013,09,11,12,08,28.70
2013,09,11,12,09,28.80
2013,09,11,12,10,28.80
2013,09,11,12,11,28.90
2013,09,11,12,12,28.90
2013,09,11,12,13,29.00
2013,09,11,12,14,29.10
2013,09,11,12,15,29.10
2013,09,11,12,16,29.10
2013,09,11,12,17,29.10
2013,09,11,12,18,29.10
2013,09,11,12,19,29.10
2013,09,11,12,20,29.20
2013,09,11,12,21,29.10
2013,09,11,12,22,29.10
2013,09,11,12,23,29.10
2013,09,11,12,24,29.20
2013,09,11,12,25,29.20
2013,09,11,12,26,29.20
2013,09,11,12,27,29.20
2013,09,11,12,28,29.20
2013,09,11,12,29,29.30
2013,09,11,12,30,29.30
2013,09,11,12,31,29.30
2013,09,11,12,32,29.30
2013,09,11,12,33,29.40
2013,09,11,12,34,29.50
2013,09,11,12,35,29.50
2013,09,11,12,36,29.60
2013,09,11,12,37,29.60
2013,09,11,12,38,29.70
2013,09,11,12,39,29.70
2013,09,11,12,40,29.70
2013,09,11,12,41,29.80
2013,09,11,12,42,29.80
2013,09,11,12,43,29.80
2013,09,11,12,44,29.80
2013,09,11,12,45,29.90
2013,09,11,12,46,29.90
2013,09,11,12,47,30.00
2013,09,11,12,48,30.00
2013,09,11,12,49,30.10
2013,09,11,12,50,30.10
2013,09,11,12,51,30.20
2013,09,11,12,52,30.20
2013,09,11,12,53,30.30
2013,09,11,12,54,30.30
2013,09,11,12,55,30.30
2013,09,11,12,56,30.30
2013,09,11,12,57,30.40
2013,09,11,12,58,30.40
2013,09,11,12,59,30.40
2013,09,11,13,00,30.40
2013,09,11,13,01,30.40
2013,09,11,13,02,30.50
2013,09,11,13,03,30.50
2013,09,11,13,04,30.60
2013,09,11,13,05,30.60
2013,09,11,13,06,30.60
2013,09,11,13,07,30.60
2013,09,11,13,08,30.60
2013,09,11,13,09,30.70
2013,09,11,13,10,30.70
2013,09,11,13,11,30.70
2013,09,11,13,12,30.70
2013,09,11,13,13,30.70
2013,09,11,13,14,30.70
2013,09,11,13,15,30.70
2013,09,11,13,16,30.80
2013,09,11,13,17,30.80
2013,09,11,13,18,30.90
2013,09,11,13,19,30.90
2013,09,11,13,20,30.80
2013,09,11,13,21,30.80
2013,09,11,13,22,30.80
2013,09,11,13,23,30.70
2013,09,11,13,24,30.70
2013,09,11,13,25,30.70
2013,09,11,13,26,30.70
2013,09,11,13,27,30.60
2013,09,11,13,28,30.60
2013,09,11,13,29,30.60
2013,09,11,13,30,30.70
2013,09,11,13,31,30.70
2013,09,11,13,32,30.70
2013,09,11,13,33,30.70
2013,09,11,13,34,30.80
2013,09,11,13,35,30.70
2013,09,11,13,36,30.70
2013,09,11,13,37,30.70
2013,09,11,13,38,30.70
2013,09,11,13,39,30.80
2013,09,11,13,40,30.80
2013,09,11,13,41,30.80
2013,09,11,13,42,30.90
2013,09,11,13,43,30.90
2013,09,11,13,44,31.00
2013,09,11,13,45,31.10
2013,09,11,13,46,31.10
2013,09,11,13,47,31.20
2013,09,11,13,48,31.20
2013,09,11,13,49,31.30
2013,09,11,13,50,31.30
2013,09,11,13,51,31.40
2013,09,11,13,52,31.40
2013,09,11,13,53,31.40
2013,09,11,13,54,31.40
2013,09,11,13,55,31.40
2013,09,11,13,56,31.30
2013,09,11,13,57,31.30
2013,09,11,13,58,31.30
2013,09,11,13,59,31.40
2013,09,11,14,00,31.40
2013,09,11,14,01,31.40
2013,09,11,14,02,31.40
2013,09,11,14,03,31.40
2013,09,11,14,04,31.40
2013,09,11,14,05,31.40
2013,09,11,14,06,31.50
2013,09,11,14,07,31.50
2013,09,11,14,08,31.50
2013,09,11,14,09,31.50
2013,09,11,14,10,31.50
2013,09,11,14,11,31.40
2013,09,11,14,12,31.30
2013,09,11,14,13,31.10
2013,09,11,14,14,30.80
2013,09,11,14,15,30.60
2013,09,11,14,16,30.30
2013,09,11,14,17,30.10
2013,09,11,14,18,29.90
2013,09,11,14,19,29.70
2013,09,11,14,20,29.50
2013,09,11,14,21,29.30
2013,09,11,14,22,29.20
2013,09,11,14,23,29.20
2013,09,11,14,24,29.10
2013,09,11,14,25,29.10
2013,09,11,14,26,29.10
2013,09,11,14,27,29.10
2013,09,11,14,28,29.20
2013,09,11,14,29,29.30
2013,09,11,14,30,29.40
2013,09,11,14,31,29.40
2013,09,11,14,32,29.50
2013,09,11,14,33,29.40
2013,09,11,14,34,29.30
2013,09,11,14,35,29.20
2013,09,11,14,36,29.20
2013,09,11,14,37,29.10
2013,09,11,14,38,29.10
2013,09,11,14,39,29.00
2013,09,11,14,40,29.00
2013,09,11,14,41,29.10
2013,09,11,14,42,29.10
2013,09,11,14,43,29.20
2013,09,11,14,44,29.30
2013,09,11,14,45,29.30
2013,09,11,14,46,29.30
2013,09,11,14,47,29.30
2013,09,11,14,48,29.30
2013,09,11,14,49,29.30
2013,09,11,14,50,29.30
2013,09,11,14,51,29.30
2013,09,11,14,52,29.30
2013,09,11,14,53,29.30
2013,09,11,14,54,29.20
2013,09,11,14,55,29.20
2013,09,11,14,56,29.30
2013,09,11,14,57,29.30
2013,09,11,14,58,29.40
2013,09,11,14,59,29.50
2013,09,11,15,00,29.50
2013,09,11,15,01,29.60
2013,09,11,15,02,29.70
2013,09,11,15,03,29.80
2013,09,11,15,04,29.80
2013,09,11,15,05,29.90
2013,09,11,15,06,30.00
2013,09,11,15,07,30.20
2013,09,11,15,08,30.20
2013,09,11,15,09,30.20
2013,09,11,15,10,30.20
2013,09,11,15,11,30.20
2013,09,11,15,12,30.10
2013,09,11,15,13,30.00
2013,09,11,15,14,30.00
2013,09,11,15,15,29.90
2013,09,11,15,16,29.80
2013,09,11,15,17,29.60
2013,09,11,15,18,29.50
2013,09,11,15,19,29.40
2013,09,11,15,20,29.30
2013,09,11,15,21,29.20
2013,09,11,15,22,29.20
2013,09,11,15,23,29.30
2013,09,11,15,24,29.30
2013,09,11,15,25,29.30
2013,09,11,15,26,29.30
2013,09,11,15,27,29.30
2013,09,11,15,28,29.30
2013,09,11,15,29,29.30
2013,09,11,15,30,29.30
2013,09,11,15,31,29.20
2013,09,11,15,32,29.20
2013,09,11,15,33,29.20
2013,09,11,15,34,29.20
2013,09,11,15,35,29.20
2013,09,11,15,36,29.30
2013,09,11,15,37,29.30
2013,09,11,15,38,29.30
2013,09,11,15,39,29.40
2013,09,11,15,40,29.40
2013,09,11,15,41,29.50
2013,09,11,15,42,29.60
2013,09,11,15,43,29.60
2013,09,11,15,44,29.60
2013,09,11,15,45,29.70
2013,09,11,15,46,29.70
2013,09,11,15,47,29.70
2013,09,11,15,48,29.60
2013,09,11,15,49,29.50
2013,09,11,15,50,29.40
2013,09,11,15,51,29.40
2013,09,11,15,52,29.50
2013,09,11,15,53,29.60
2013,09,11,15,54,29.60
2013,09,11,15,55,29.60
2013,09,11,15,56,29.60
2013,09,11,15,57,29.70
2013,09,11,15,58,29.70
2013,09,11,15,59,29.70
2013,09,11,16,00,29.70
2013,09,11,16,01,29.70
2013,09,11,16,02,29.70
2013,09,11,16,03,29.70
2013,09,11,16,04,29.70
2013,09,11,16,05,29.70
2013,09,11,16,06,29.70
2013,09,11,16,07,29.60
2013,09,11,16,08,29.50
2013,09,11,16,09,29.40
2013,09,11,16,10,29.40
2013,09,11,16,11,29.40
2013,09,11,16,12,29.40
2013,09,11,16,13,29.40
2013,09,11,16,14,29.40
2013,09,11,16,15,29.50
2013,09,11,16,16,29.60
2013,09,11,16,17,29.60
2013,09,11,16,18,29.60
2013,09,11,16,19,29.60
2013,09,11,16,20,29.60
2013,09,11,16,21,29.60
2013,09,11,16,22,29.60
2013,09,11,16,23,29.60
2013,09,11,16,24,29.70
2013,09,11,16,25,29.70
2013,09,11,16,26,29.70
2013,09,11,16,27,29.70
2013,09,11,16,28,29.70
2013,09,11,16,29,29.70
2013,09,11,16,30,29.70
2013,09,11,16,31,29.70
2013,09,11,16,32,29.70
2013,09,11,16,33,29.70
2013,09,11,16,34,29.70
2013,09,11,16,35,29.60
2013,09,11,16,36,29.60
2013,09,11,16,37,29.50
2013,09,11,16,38,29.40
2013,09,11,16,39,29.40
2013,09,11,16,40,29.30
2013,09,11,16,41,29.30
2013,09,11,16,42,29.20
2013,09,11,16,43,29.20
2013,09,11,16,44,29.20
2013,09,11,16,45,29.20
2013,09,11,16,46,29.10
2013,09,11,16,47,29.10
2013,09,11,16,48,29.10
2013,09,11,16,49,29.10
2013,09,11,16,50,29.10
2013,09,11,16,51,29.10
2013,09,11,16,52,29.00
2013,09,11,16,53,29.00
2013,09,11,16,54,28.90
2013,09,11,16,55,28.80
2013,09,11,16,56,28.80
2013,09,11,16,57,28.80
2013,09,11,16,58,28.80
2013,09,11,16,59,28.80
2013,09,11,17,00,28.80
2013,09,11,17,01,28.70
2013,09,11,17,02,28.70
2013,09,11,17,03,28.70
2013,09,11,17,04,28.60
2013,09,11,17,05,28.60
2013,09,11,17,06,28.50
2013,09,11,17,07,28.50
2013,09,11,17,08,28.40
2013,09,11,17,09,28.40
2013,09,11,17,10,28.40
2013,09,11,17,11,28.30
2013,09,11,17,12,28.30
2013,09,11,17,13,28.30
2013,09,11,17,14,28.30
2013,09,11,17,15,28.30
2013,09,11,17,16,28.30
2013,09,11,17,17,28.30
2013,09,11,17,18,28.30
2013,09,11,17,19,28.30